Weather History for Sioux City, IA

Change the Weather History Date:

Sunday, February 9, 2014

  Actual Average Record
Temperature  
Mean Temperature 5 °F 23 °F  
Max Temperature 15 °F 33 °F 62 °F (1954)
Min Temperature -6 °F 13 °F -29 °F (1899)
Degree Days  
Heating Degree Days 60 42  
Month to date heating degree days 503 383  
Since 1 July heating degree days 4818 4559  
Cooling Degree Days 0 0  
Month to date cooling degree days 0 0  
Year to date cooling degree days 0 0  
Moisture  
Dew Point -1 °F    
Average Humidity 67    
Maximum Humidity 80    
Minimum Humidity 53    
Precipitation  
Precipitation T in 0.02 in 0.81 in (1909)
Month to date precipitation 0.10 0.18  
Year to date precipitation 0.29 0.80  
Snow  
Snow T in 0.30 in 10.50 in (1909)
Month to date snowfall 2.4 2.2  
Since 1 July snowfall 7.7 22.1  
Snow Depth 1.00 in    
Sea Level Pressure  
Sea Level Pressure 30.41 in    
Wind  
Wind Speed 10 mph (NNW)    
Max Wind Speed 18 mph    
Max Gust Speed 22 mph    
Visibility 10 miles    
Events      
T = Trace of Precipitation, MM = Missing Value Source: NWS Daily Summary

Daily Weather History Graph

Daily Weather History Graph

Search for Another Location

Airport:

Trip Planner

Search our weather history database for the weather conditions in past years. The results will help you decide how hot, cold, wet, or windy it might be!

Date:

Astronomy

Feb. 09, 2014 Rise Set
Actual Time 7:29 AM CST 5:50 PM CST
Civil Twilight 7:00 AM CST 6:19 PM CST
Nautical Twilight 6:27 AM CST 6:52 PM CST
Astronomical Twilight 5:54 AM CST 7:25 PM CST
Moon 1:28 PM CST (2/9) 3:37 AM CST (2/9)
Length of Visible Light 11h 18m
Length of Day
10h 20m
Waxing Gibbous, 77% of the Moon is Illuminated
Feb 9
Waxing Gibbous
Feb 14
Full
Feb 22
Last Quarter
Mar 1
New
Mar 8
First Quarter

Hourly Weather History & Observations

Time (CST) Temp. Windchill Dew Point Humidity Pressure Visibility Wind Dir Wind Speed Gust Speed Precip Events Conditions
12:07 AM 15.1 °F 3.3 °F 8.1 °F 74% 30.23 in 10.0 mi NNW 9.2 mph - N/A   Overcast
12:47 AM 14.0 °F 2.9 °F 8.6 °F 79% 30.24 in 10.0 mi NW 8.1 mph - N/A   Overcast
12:52 AM 14.0 °F 2.9 °F 8.1 °F 77% 30.30 in 10.0 mi NW 8.1 mph - N/A   Overcast
1:52 AM 12.9 °F 3.8 °F 7.0 °F 77% 30.32 in 10.0 mi WNW 5.8 mph - N/A   Overcast
2:13 AM 12.9 °F -3.4 °F 8.1 °F 81% 30.25 in 10.0 mi NNW 16.1 mph - N/A   Overcast
2:52 AM 12.0 °F -4.0 °F 7.0 °F 80% 30.32 in 10.0 mi NW 15.0 mph - 0.00 in   Overcast
3:52 AM 9.0 °F -7.9 °F 3.9 °F 80% 30.34 in 8.0 mi NNW 15.0 mph - 0.00 in   Overcast
4:18 AM 8.1 °F -7.7 °F 3.0 °F 80% 30.27 in 10.0 mi NNW 12.7 mph - 0.00 in   Overcast
4:52 AM 7.0 °F -9.1 °F 1.0 °F 77% 30.35 in 10.0 mi North 12.7 mph - 0.00 in   Partly Cloudy
5:52 AM 3.9 °F -14.3 °F -2.9 °F 73% 30.37 in 10.0 mi North 15.0 mph - N/A   Clear
6:52 AM 1.9 °F -13.8 °F -5.1 °F 72% 30.39 in 10.0 mi North 10.4 mph - N/A   Clear
7:52 AM 1.9 °F -13.8 °F -7.1 °F 66% 30.41 in 10.0 mi NNW 10.4 mph - N/A   Clear
8:52 AM 1.9 °F -16.2 °F -7.1 °F 66% 30.42 in 10.0 mi North 13.8 mph - N/A   Clear
9:52 AM 3.9 °F -10.4 °F -7.1 °F 60% 30.46 in 10.0 mi North 9.2 mph - N/A   Clear
10:52 AM 6.1 °F -8.7 °F -7.1 °F 55% 30.45 in 10.0 mi North 10.4 mph - N/A   Partly Cloudy
11:52 AM 8.1 °F -8.4 °F -6.0 °F 53% 30.47 in 10.0 mi North 13.8 mph - N/A   Scattered Clouds
12:52 PM 9.0 °F -3.2 °F -6.0 °F 51% 30.46 in 10.0 mi North 8.1 mph - N/A   Clear
1:52 PM 12.0 °F -0.4 °F -2.9 °F 51% 30.44 in 10.0 mi North 9.2 mph - N/A   Clear
2:52 PM 12.9 °F 1.6 °F -2.0 °F 51% 30.43 in 10.0 mi NNW 8.1 mph - N/A   Clear
3:52 PM 12.0 °F -1.3 °F -0.9 °F 56% 30.43 in 10.0 mi NNW 10.4 mph - N/A   Scattered Clouds
4:14 PM 12.0 °F -1.3 °F -0.0 °F 59% 30.37 in 10.0 mi NW 10.4 mph - N/A   Mostly Cloudy
4:52 PM 12.0 °F 0.5 °F 1.0 °F 61% 30.45 in 10.0 mi NNW 8.1 mph - N/A   Overcast
5:52 PM 10.9 °F -2.6 °F 1.9 °F 67% 30.47 in 10.0 mi North 10.4 mph - N/A   Overcast
6:40 PM 9.0 °F -3.2 °F -0.0 °F 67% 30.42 in 10.0 mi North 8.1 mph - N/A   Scattered Clouds
6:52 PM 7.0 °F -5.7 °F -0.9 °F 70% 30.50 in 10.0 mi North 8.1 mph - N/A   Clear
7:52 PM 5.0 °F -10.0 °F -2.0 °F 73% 30.51 in 10.0 mi North 10.4 mph - N/A   Clear
8:52 PM 3.9 °F -9.4 °F -2.9 °F 73% 30.53 in 10.0 mi North 8.1 mph - N/A   Clear
9:52 PM 3.9 °F -11.3 °F -6.0 °F 64% 30.54 in 10.0 mi North 10.4 mph - N/A   Clear
10:52 PM -2.0 °F -12.2 °F -7.1 °F 79% 30.54 in 10.0 mi WNW 4.6 mph - N/A   Clear
11:52 PM -5.1 °F -15.8 °F -9.9 °F 80% 30.55 in 10.0 mi WNW 4.6 mph - N/A   Clear